Location: DARK SKY Beskydy - Park tmavé oblohy, www.darkskybeskydy.cz
(49.4926°N, 18.5016°E)
Time: 09:05:31
(UTC+02:00)

Transit 4A - Pass Details

Date: 25 February 2024
Orbit: 871 x 971 km, 66.8° (Epoch: 24 April)

Event Time Altitude Azimuth Distance (km) Brightness Sun altitude
Exits shadow 01:34:16 16° 39° (NE) 2,170 10.3 -45.2°
Drops below altitude 10° 01:35:25 10° 38° (NE) 2,592 10.8 -45.1°
Sets 01:37:54 0° 37° (NE) 3,523 11.7 -44.9°
